Time,TemperatureF,DewpointF,PressureIn,WindDirection,WindDirectionDegrees,WindSpeedMPH,WindSpeedGustMPH,Humidity,HourlyPrecipIn,Conditions,Clouds,dailyrainin,SolarRadiationWatts/m^2,SoftwareType,DateUTC
2013-01-08 00:01:00,25.0,20.0,-100.00,WSW,240,1.0,9.0,81,0.00,,,0.00,0.000000,,2013-01-08 05:01:00,
2013-01-08 00:22:00,25.0,20.0,-100.00,WSW,240,1.0,9.0,81,0.00,,,0.00,0.000000,,2013-01-08 05:22:00,
2013-01-08 00:33:00,25.0,20.0,-100.00,WSW,240,1.0,9.0,81,0.00,,,0.00,0.000000,,2013-01-08 05:33:00,
2013-01-08 00:43:00,25.0,20.0,-100.00,WSW,240,1.0,9.0,81,0.00,,,0.00,0.000000,,2013-01-08 05:43:00,
2013-01-08 00:53:00,25.0,20.0,-100.00,WSW,240,1.0,9.0,81,0.00,,,0.00,0.000000,,2013-01-08 05:53:00,
2013-01-08 01:01:00,27.0,21.0,-100.00,SSW,213,2.0,10.0,79,0.00,,,0.00,0.000000,,2013-01-08 06:01:00,
2013-01-08 01:22:00,27.0,21.0,-100.00,SSW,213,2.0,10.0,79,0.00,,,0.00,0.000000,,2013-01-08 06:22:00,
2013-01-08 01:33:00,27.0,21.0,-100.00,SSW,213,2.0,10.0,79,0.00,,,0.00,0.000000,,2013-01-08 06:33:00,
2013-01-08 01:43:00,27.0,21.0,-100.00,SSW,213,2.0,10.0,79,0.00,,,0.00,0.000000,,2013-01-08 06:43:00,
2013-01-08 01:53:00,27.0,21.0,-100.00,SSW,213,2.0,10.0,79,0.00,,,0.00,0.000000,,2013-01-08 06:53:00,
2013-01-08 02:01:00,29.0,21.0,-100.00,WSW,243,2.0,11.0,73,0.00,,,0.00,0.000000,,2013-01-08 07:01:00,
2013-01-08 02:32:00,29.0,21.0,-100.00,WSW,243,2.0,11.0,73,0.00,,,0.00,0.000000,,2013-01-08 07:32:00,
2013-01-08 02:42:00,29.0,21.0,-100.00,WSW,243,2.0,11.0,73,0.00,,,0.00,0.000000,,2013-01-08 07:42:00,
2013-01-08 02:52:00,29.0,21.0,-100.00,WSW,243,2.0,11.0,73,0.00,,,0.00,0.000000,,2013-01-08 07:52:00,
2013-01-08 03:01:00,30.0,22.0,-100.00,SW,220,2.0,8.0,73,0.00,,,0.00,0.000000,,2013-01-08 08:01:00,
2013-01-08 03:22:00,30.0,22.0,-100.00,SW,220,2.0,8.0,73,0.00,,,0.00,0.000000,,2013-01-08 08:22:00,
2013-01-08 03:32:00,30.0,22.0,-100.00,SW,220,2.0,8.0,73,0.00,,,0.00,0.000000,,2013-01-08 08:32:00,
2013-01-08 03:42:00,30.0,22.0,-100.00,SW,220,2.0,8.0,73,0.00,,,0.00,0.000000,,2013-01-08 08:42:00,
2013-01-08 03:53:00,30.0,22.0,-100.00,SW,220,2.0,8.0,73,0.00,,,0.00,0.000000,,2013-01-08 08:53:00,
2013-01-08 04:01:00,30.0,21.0,-100.00,SW,216,2.0,13.0,70,0.00,,,0.00,0.000000,,2013-01-08 09:01:00,
2013-01-08 04:22:00,30.0,21.0,-100.00,SW,216,2.0,13.0,70,0.00,,,0.00,0.000000,,2013-01-08 09:22:00,
2013-01-08 04:33:00,30.0,21.0,-100.00,SW,216,2.0,13.0,70,0.00,,,0.00,0.000000,,2013-01-08 09:33:00,
2013-01-08 04:42:00,30.0,21.0,-100.00,SW,216,2.0,13.0,70,0.00,,,0.00,0.000000,,2013-01-08 09:42:00,
2013-01-08 04:53:00,30.0,21.0,-100.00,SW,216,2.0,13.0,70,0.00,,,0.00,0.000000,,2013-01-08 09:53:00,
2013-01-08 05:01:00,31.0,21.0,-100.00,SW,222,3.0,19.0,67,0.00,,,0.00,0.000000,,2013-01-08 10:01:00,
2013-01-08 05:33:00,31.0,21.0,-100.00,SW,222,3.0,19.0,67,0.00,,,0.00,0.000000,,2013-01-08 10:33:00,
2013-01-08 05:43:00,31.0,21.0,-100.00,SW,222,3.0,19.0,67,0.00,,,0.00,0.000000,,2013-01-08 10:43:00,
2013-01-08 05:53:00,31.0,21.0,-100.00,SW,222,3.0,19.0,67,0.00,,,0.00,0.000000,,2013-01-08 10:53:00,
2013-01-08 06:01:00,31.0,22.0,-100.00,SW,224,3.0,14.0,68,0.00,,,0.00,0.000000,,2013-01-08 11:01:00,
2013-01-08 06:33:00,31.0,22.0,-100.00,SW,224,3.0,14.0,68,0.00,,,0.00,0.000000,,2013-01-08 11:33:00,
2013-01-08 06:43:00,31.0,22.0,-100.00,SW,224,3.0,14.0,68,0.00,,,0.00,0.000000,,2013-01-08 11:43:00,
2013-01-08 06:53:00,31.0,22.0,-100.00,SW,224,3.0,14.0,68,0.00,,,0.00,0.000000,,2013-01-08 11:53:00,
2013-01-08 07:01:00,30.0,21.0,-100.00,SW,227,2.0,11.0,70,0.00,,,0.00,0.000000,,2013-01-08 12:01:00,
2013-01-08 07:33:00,30.0,21.0,-100.00,SW,227,2.0,11.0,70,0.00,,,0.00,0.000000,,2013-01-08 12:33:00,
2013-01-08 07:43:00,30.0,21.0,-100.00,SW,227,2.0,11.0,70,0.00,,,0.00,0.000000,,2013-01-08 12:43:00,
2013-01-08 07:53:00,30.0,21.0,-100.00,SW,227,2.0,11.0,70,0.00,,,0.00,0.000000,,2013-01-08 12:53:00,
2013-01-08 08:01:00,31.0,22.0,-100.00,SW,233,3.0,11.0,70,0.00,,,0.00,2.000000,,2013-01-08 13:01:00,
2013-01-08 08:33:00,31.0,22.0,-100.00,SW,233,3.0,11.0,70,0.00,,,0.00,2.000000,,2013-01-08 13:33:00,
2013-01-08 08:43:00,31.0,22.0,-100.00,SW,233,3.0,11.0,70,0.00,,,0.00,2.000000,,2013-01-08 13:43:00,
2013-01-08 08:53:00,31.0,22.0,-100.00,SW,233,3.0,11.0,70,0.00,,,0.00,2.000000,,2013-01-08 13:53:00,
2013-01-08 09:01:00,33.0,24.0,-100.00,SW,228,2.0,9.0,70,0.00,,,0.00,19.000000,,2013-01-08 14:01:00,
2013-01-08 09:33:00,33.0,24.0,-100.00,SW,228,2.0,9.0,70,0.00,,,0.00,19.000000,,2013-01-08 14:33:00,
2013-01-08 09:43:00,33.0,24.0,-100.00,SW,228,2.0,9.0,70,0.00,,,0.00,19.000000,,2013-01-08 14:43:00,
2013-01-08 09:53:00,33.0,24.0,-100.00,SW,228,2.0,9.0,70,0.00,,,0.00,19.000000,,2013-01-08 14:53:00,
2013-01-08 10:01:00,34.0,25.0,-100.00,SW,227,3.0,8.0,69,0.00,,,0.00,29.000000,,2013-01-08 15:01:00,
2013-01-08 10:23:00,34.0,25.0,-100.00,SW,227,3.0,8.0,69,0.00,,,0.00,29.000000,,2013-01-08 15:23:00,
2013-01-08 10:33:00,34.0,25.0,-100.00,SW,227,3.0,8.0,69,0.00,,,0.00,29.000000,,2013-01-08 15:33:00,
2013-01-08 10:43:00,34.0,25.0,-100.00,SW,227,3.0,8.0,69,0.00,,,0.00,29.000000,,2013-01-08 15:43:00,
2013-01-08 10:53:00,34.0,25.0,-100.00,SW,227,3.0,8.0,69,0.00,,,0.00,29.000000,,2013-01-08 15:53:00,
2013-01-08 11:01:00,35.0,26.0,-100.00,WSW,246,2.0,10.0,70,0.00,,,0.00,48.000000,,2013-01-08 16:01:00,
2013-01-08 11:34:00,35.0,26.0,-100.00,WSW,246,2.0,10.0,70,0.00,,,0.00,48.000000,,2013-01-08 16:34:00,
2013-01-08 11:43:00,35.0,26.0,-100.00,WSW,246,2.0,10.0,70,0.00,,,0.00,48.000000,,2013-01-08 16:43:00,
2013-01-08 11:53:00,35.0,26.0,-100.00,WSW,246,2.0,10.0,70,0.00,,,0.00,48.000000,,2013-01-08 16:53:00,
2013-01-08 12:01:00,35.0,26.0,-100.00,WSW,251,2.0,11.0,70,0.01,,,0.01,79.000000,,2013-01-08 17:01:00,
2013-01-08 12:34:00,35.0,26.0,-100.00,WSW,251,2.0,11.0,70,0.01,,,0.01,79.000000,,2013-01-08 17:34:00,
2013-01-08 12:43:00,35.0,26.0,-100.00,WSW,251,2.0,11.0,70,0.01,,,0.01,79.000000,,2013-01-08 17:43:00,
2013-01-08 12:54:00,35.0,26.0,-100.00,WSW,251,2.0,11.0,70,0.01,,,0.01,79.000000,,2013-01-08 17:54:00,
2013-01-08 13:01:00,35.0,27.0,-100.00,WSW,248,2.0,8.0,71,0.01,,,0.02,59.000000,,2013-01-08 18:01:00,
2013-01-08 13:24:00,35.0,27.0,-100.00,WSW,248,2.0,8.0,71,0.01,,,0.02,59.000000,,2013-01-08 18:24:00,
2013-01-08 13:33:00,35.0,27.0,-100.00,WSW,248,2.0,8.0,71,0.01,,,0.02,59.000000,,2013-01-08 18:33:00,
2013-01-08 13:43:00,35.0,27.0,-100.00,WSW,248,2.0,8.0,71,0.01,,,0.02,59.000000,,2013-01-08 18:43:00,
2013-01-08 13:53:00,35.0,27.0,-100.00,WSW,248,2.0,8.0,71,0.01,,,0.02,59.000000,,2013-01-08 18:53:00,
2013-01-08 14:01:00,35.0,28.0,-100.00,WSW,257,1.0,7.0,74,0.02,,,0.04,38.000000,,2013-01-08 19:01:00,
2013-01-08 14:33:00,35.0,28.0,-100.00,WSW,257,1.0,7.0,74,0.02,,,0.04,38.000000,,2013-01-08 19:33:00,
2013-01-08 14:43:00,35.0,28.0,-100.00,WSW,257,1.0,7.0,74,0.02,,,0.04,38.000000,,2013-01-08 19:43:00,
2013-01-08 14:53:00,35.0,28.0,-100.00,WSW,257,1.0,7.0,74,0.02,,,0.04,38.000000,,2013-01-08 19:53:00,
2013-01-08 15:01:00,35.0,29.0,-100.00,WNW,294,0.0,5.0,77,0.01,,,0.05,34.000000,,2013-01-08 20:01:00,
2013-01-08 15:23:00,35.0,29.0,-100.00,WNW,294,0.0,5.0,77,0.01,,,0.05,34.000000,,2013-01-08 20:23:00,
2013-01-08 15:33:00,35.0,29.0,-100.00,WNW,294,0.0,5.0,77,0.01,,,0.05,34.000000,,2013-01-08 20:33:00,
2013-01-08 15:43:00,35.0,29.0,-100.00,WNW,294,0.0,5.0,77,0.01,,,0.05,34.000000,,2013-01-08 20:43:00,
2013-01-08 15:54:00,35.0,29.0,-100.00,WNW,294,0.0,5.0,77,0.01,,,0.05,34.000000,,2013-01-08 20:54:00,
2013-01-08 16:01:00,34.0,29.0,-100.00,South,187,1.0,4.0,81,-99.99,,,-99.99,25.000000,,2013-01-08 21:01:00,
2013-01-08 16:33:00,34.0,29.0,-100.00,South,187,1.0,4.0,81,-99.99,,,-99.99,25.000000,,2013-01-08 21:33:00,
2013-01-08 16:43:00,34.0,29.0,-100.00,South,187,1.0,4.0,81,-99.99,,,-99.99,25.000000,,2013-01-08 21:43:00,
2013-01-08 16:53:00,34.0,29.0,-100.00,South,187,1.0,4.0,81,-99.99,,,-99.99,25.000000,,2013-01-08 21:53:00,
2013-01-08 17:01:00,33.0,29.0,-100.00,SSE,154,1.0,5.0,85,0.01,,,-99.99,3.000000,,2013-01-08 22:01:00,
2013-01-08 17:33:00,33.0,29.0,-100.00,SSE,154,1.0,5.0,85,0.01,,,-99.99,3.000000,,2013-01-08 22:33:00,
2013-01-08 17:43:00,33.0,29.0,-100.00,SSE,154,1.0,5.0,85,0.01,,,-99.99,3.000000,,2013-01-08 22:43:00,
2013-01-08 17:53:00,33.0,29.0,-100.00,SSE,154,1.0,5.0,85,0.01,,,-99.99,3.000000,,2013-01-08 22:53:00,
2013-01-08 18:01:00,29.0,26.0,-100.00,SSW,198,0.0,5.0,88,0.00,,,-99.99,0.000000,,2013-01-08 23:01:00,
2013-01-08 18:33:00,29.0,26.0,-100.00,SSW,198,0.0,5.0,88,0.00,,,-99.99,0.000000,,2013-01-08 23:33:00,
2013-01-08 18:43:00,29.0,26.0,-100.00,SSW,198,0.0,5.0,88,0.00,,,-99.99,0.000000,,2013-01-08 23:43:00,
2013-01-08 18:53:00,29.0,26.0,-100.00,SSW,198,0.0,5.0,88,0.00,,,-99.99,0.000000,,2013-01-08 23:53:00,
2013-01-08 19:01:00,26.0,24.0,-100.00,North,6,0.0,4.0,93,0.00,,,-99.99,0.000000,,2013-01-09 00:01:00,
2013-01-08 19:33:00,26.0,24.0,-100.00,North,6,0.0,4.0,93,0.00,,,-99.99,0.000000,,2013-01-09 00:33:00,
2013-01-08 19:43:00,26.0,24.0,-100.00,North,6,0.0,4.0,93,0.00,,,-99.99,0.000000,,2013-01-09 00:43:00,
2013-01-08 19:53:00,26.0,24.0,-100.00,North,6,0.0,4.0,93,0.00,,,-99.99,0.000000,,2013-01-09 00:53:00,
2013-01-08 20:01:00,28.0,27.0,-100.00,North,11,0.0,2.0,95,0.00,,,-99.99,0.000000,,2013-01-09 01:01:00,
2013-01-08 20:33:00,28.0,27.0,-100.00,North,11,0.0,2.0,95,0.00,,,-99.99,0.000000,,2013-01-09 01:33:00,
2013-01-08 20:43:00,28.0,27.0,-100.00,North,11,0.0,2.0,95,0.00,,,-99.99,0.000000,,2013-01-09 01:43:00,
2013-01-08 20:53:00,28.0,27.0,-100.00,North,11,0.0,2.0,95,0.00,,,-99.99,0.000000,,2013-01-09 01:53:00,
2013-01-08 21:01:00,29.0,28.0,-100.00,ENE,68,0.0,0.0,96,0.00,,,-99.99,0.000000,,2013-01-09 02:01:00,
2013-01-08 21:33:00,29.0,28.0,-100.00,ENE,68,0.0,0.0,96,0.00,,,-99.99,0.000000,,2013-01-09 02:33:00,
2013-01-08 21:43:00,29.0,28.0,-100.00,ENE,68,0.0,0.0,96,0.00,,,-99.99,0.000000,,2013-01-09 02:43:00,
2013-01-08 21:53:00,29.0,28.0,-100.00,ENE,68,0.0,0.0,96,0.00,,,-99.99,0.000000,,2013-01-09 02:53:00,
2013-01-08 22:01:00,30.0,29.0,-100.00,NW,314,0.0,3.0,95,0.00,,,-99.99,0.000000,,2013-01-09 03:01:00,
2013-01-08 22:33:00,30.0,29.0,-100.00,NW,314,0.0,3.0,95,0.00,,,-99.99,0.000000,,2013-01-09 03:33:00,
2013-01-08 22:43:00,30.0,29.0,-100.00,NW,314,0.0,3.0,95,0.00,,,-99.99,0.000000,,2013-01-09 03:43:00,
2013-01-08 22:53:00,30.0,29.0,-100.00,NW,314,0.0,3.0,95,0.00,,,-99.99,0.000000,,2013-01-09 03:53:00,
2013-01-08 23:01:00,31.0,29.0,-100.00,NE,47,0.0,2.0,94,0.00,,,-99.99,0.000000,,2013-01-09 04:01:00,
2013-01-08 23:23:00,31.0,29.0,-100.00,NE,47,0.0,2.0,94,0.00,,,-99.99,0.000000,,2013-01-09 04:23:00,
2013-01-08 23:33:00,31.0,29.0,-100.00,NE,47,0.0,2.0,94,0.00,,,-99.99,0.000000,,2013-01-09 04:33:00,
2013-01-08 23:43:00,31.0,29.0,-100.00,NE,47,0.0,2.0,94,0.00,,,-99.99,0.000000,,2013-01-09 04:43:00,
2013-01-08 23:52:00,31.0,29.0,-100.00,NE,47,0.0,2.0,94,0.00,,,-99.99,0.000000,,2013-01-09 04:52:00,